owner,sensor,date,latitude,longitude,air_pressure(mBar),qcFlag 
WAVCIS,ioos:station:WAVCIS:CSI09:1,2012-08-01T00:00:00Z,29.1015,-89.9782,1015.16,11111222 
WAVCIS,ioos:station:WAVCIS:CSI09:1,2012-08-01T01:00:00Z,29.1015,-89.9782,1014.76,11111222 
WAVCIS,ioos:station:WAVCIS:CSI09:1,2012-08-01T02:00:00Z,29.1015,-89.9782,1015.39,11111222 
WAVCIS,ioos:station:WAVCIS:CSI09:1,2012-08-01T03:00:00Z,29.1015,-89.9782,1015.58,11111222 
WAVCIS,ioos:station:WAVCIS:CSI09:1,2012-08-01T04:00:00Z,29.1015,-89.9782,1015.65,11111222 
WAVCIS,ioos:station:WAVCIS:CSI09:1,2012-08-01T05:00:00Z,29.1015,-89.9782,1015.49,11111222 
WAVCIS,ioos:station:WAVCIS:CSI09:1,2012-08-01T06:00:00Z,29.1015,-89.9782,1015.32,11111222 
WAVCIS,ioos:station:WAVCIS:CSI09:1,2012-08-01T07:00:00Z,29.1015,-89.9782,1014.57,11111222 
WAVCIS,ioos:station:WAVCIS:CSI09:1,2012-08-01T08:00:00Z,29.1015,-89.9782,1014.25,11111222 
WAVCIS,ioos:station:WAVCIS:CSI09:1,2012-08-01T09:00:00Z,29.1015,-89.9782,1014.6,11111222 
WAVCIS,ioos:station:WAVCIS:CSI09:1,2012-08-01T10:00:00Z,29.1015,-89.9782,1014.85,11111222 
WAVCIS,ioos:station:WAVCIS:CSI09:1,2012-08-01T11:00:00Z,29.1015,-89.9782,1015.07,11111222 
WAVCIS,ioos:station:WAVCIS:CSI09:1,2012-08-01T12:00:00Z,29.1015,-89.9782,1015.43,11111222 
WAVCIS,ioos:station:WAVCIS:CSI09:1,2012-08-01T13:00:00Z,29.1015,-89.9782,1015.92,11111222 
WAVCIS,ioos:station:WAVCIS:CSI09:1,2012-08-01T14:00:00Z,29.1015,-89.9782,1016.66,11111222 
WAVCIS,ioos:station:WAVCIS:CSI09:1,2012-08-01T15:00:00Z,29.1015,-89.9782,1017.19,11111222 
WAVCIS,ioos:station:WAVCIS:CSI09:1,2012-08-01T16:00:00Z,29.1015,-89.9782,1017.12,11111222 
WAVCIS,ioos:station:WAVCIS:CSI09:1,2012-08-01T17:00:00Z,29.1015,-89.9782,1016.86,11111222 
WAVCIS,ioos:station:WAVCIS:CSI09:1,2012-08-01T18:00:00Z,29.1015,-89.9782,1016.62,11111222 
WAVCIS,ioos:station:WAVCIS:CSI09:1,2012-08-01T19:00:00Z,29.1015,-89.9782,1015.67,11111222 
WAVCIS,ioos:station:WAVCIS:CSI09:1,2012-08-01T20:00:00Z,29.1015,-89.9782,1015.13,11111222 
WAVCIS,ioos:station:WAVCIS:CSI09:1,2012-08-01T21:00:00Z,29.1015,-89.9782,1014.5,11111222 
WAVCIS,ioos:station:WAVCIS:CSI09:1,2012-08-01T22:00:00Z,29.1015,-89.9782,1013.82,11111222 
WAVCIS,ioos:station:WAVCIS:CSI09:1,2012-08-01T23:00:00Z,29.1015,-89.9782,1013.43,11111222 
WAVCIS,ioos:station:WAVCIS:CSI09:1,2012-08-02T00:00:00Z,29.1015,-89.9782,1013.03,11111222 
WAVCIS,ioos:station:WAVCIS:CSI09:1,2012-08-02T01:00:00Z,29.1015,-89.9782,1013.66,11111222 
WAVCIS,ioos:station:WAVCIS:CSI09:1,2012-08-02T02:00:00Z,29.1015,-89.9782,1013.77,11111222 
WAVCIS,ioos:station:WAVCIS:CSI09:1,2012-08-02T03:00:00Z,29.1015,-89.9782,1013.83,11111222 
WAVCIS,ioos:station:WAVCIS:CSI09:1,2012-08-02T04:00:00Z,29.1015,-89.9782,1014.06,11111222 
WAVCIS,ioos:station:WAVCIS:CSI09:1,2012-08-02T05:00:00Z,29.1015,-89.9782,1013.95,11111222 
WAVCIS,ioos:station:WAVCIS:CSI09:1,2012-08-02T06:00:00Z,29.1015,-89.9782,1013.64,11111222 
WAVCIS,ioos:station:WAVCIS:CSI09:1,2012-08-02T07:00:00Z,29.1015,-89.9782,1012.98,11111222 
WAVCIS,ioos:station:WAVCIS:CSI09:1,2012-08-02T08:00:00Z,29.1015,-89.9782,1012.73,11111222 
WAVCIS,ioos:station:WAVCIS:CSI09:1,2012-08-02T09:00:00Z,29.1015,-89.9782,1013.08,11111222 
WAVCIS,ioos:station:WAVCIS:CSI09:1,2012-08-02T10:00:00Z,29.1015,-89.9782,1013.47,11111222 
WAVCIS,ioos:station:WAVCIS:CSI09:1,2012-08-02T11:00:00Z,29.1015,-89.9782,1013.86,11111222 
WAVCIS,ioos:station:WAVCIS:CSI09:1,2012-08-02T12:00:00Z,29.1015,-89.9782,1014.46,11111222 
WAVCIS,ioos:station:WAVCIS:CSI09:1,2012-08-02T13:00:00Z,29.1015,-89.9782,1014.94,11111222 
WAVCIS,ioos:station:WAVCIS:CSI09:1,2012-08-02T14:00:00Z,29.1015,-89.9782,1015.31,11111222 
WAVCIS,ioos:station:WAVCIS:CSI09:1,2012-08-02T15:00:00Z,29.1015,-89.9782,1015.23,11111222 
WAVCIS,ioos:station:WAVCIS:CSI09:1,2012-08-02T16:00:00Z,29.1015,-89.9782,1015.5,11111222 
WAVCIS,ioos:station:WAVCIS:CSI09:1,2012-08-02T17:00:00Z,29.1015,-89.9782,1015.34,11111222 
WAVCIS,ioos:station:WAVCIS:CSI09:1,2012-08-02T18:00:00Z,29.1015,-89.9782,1015.26,11111222 
WAVCIS,ioos:station:WAVCIS:CSI09:1,2012-08-02T19:00:00Z,29.1015,-89.9782,1014.4,11111222 
WAVCIS,ioos:station:WAVCIS:CSI09:1,2012-08-02T20:00:00Z,29.1015,-89.9782,1014.02,11111222 
WAVCIS,ioos:station:WAVCIS:CSI09:1,2012-08-02T21:00:00Z,29.1015,-89.9782,1013.63,11111222 
WAVCIS,ioos:station:WAVCIS:CSI09:1,2012-08-02T22:00:00Z,29.1015,-89.9782,1012.99,11111222 
WAVCIS,ioos:station:WAVCIS:CSI09:1,2012-08-02T23:00:00Z,29.1015,-89.9782,1012.93,11111222 
WAVCIS,ioos:station:WAVCIS:CSI09:1,2012-08-03T00:00:00Z,29.1015,-89.9782,1013.08,11111222 
WAVCIS,ioos:station:WAVCIS:CSI09:1,2012-08-03T01:00:00Z,29.1015,-89.9782,1013.07,11111222 
WAVCIS,ioos:station:WAVCIS:CSI09:1,2012-08-03T02:00:00Z,29.1015,-89.9782,1012.7,11111222 
WAVCIS,ioos:station:WAVCIS:CSI09:1,2012-08-03T03:00:00Z,29.1015,-89.9782,1013.13,11111222 
WAVCIS,ioos:station:WAVCIS:CSI09:1,2012-08-03T04:00:00Z,29.1015,-89.9782,1013.46,11111222 
WAVCIS,ioos:station:WAVCIS:CSI09:1,2012-08-03T05:00:00Z,29.1015,-89.9782,1013.51,11111222 
WAVCIS,ioos:station:WAVCIS:CSI09:1,2012-08-03T06:00:00Z,29.1015,-89.9782,1013.12,11111222 
WAVCIS,ioos:station:WAVCIS:CSI09:1,2012-08-03T07:00:00Z,29.1015,-89.9782,1012.67,11111222 
WAVCIS,ioos:station:WAVCIS:CSI09:1,2012-08-03T08:00:00Z,29.1015,-89.9782,1012.62,11111222 
WAVCIS,ioos:station:WAVCIS:CSI09:1,2012-08-03T09:00:00Z,29.1015,-89.9782,1012.79,11111222 
WAVCIS,ioos:station:WAVCIS:CSI09:1,2012-08-03T10:00:00Z,29.1015,-89.9782,1012.91,11111222 
WAVCIS,ioos:station:WAVCIS:CSI09:1,2012-08-03T11:00:00Z,29.1015,-89.9782,1013.32,11111222 
WAVCIS,ioos:station:WAVCIS:CSI09:1,2012-08-03T12:00:00Z,29.1015,-89.9782,1013.81,11111222 
WAVCIS,ioos:station:WAVCIS:CSI09:1,2012-08-03T13:00:00Z,29.1015,-89.9782,1014.79,11111222 
WAVCIS,ioos:station:WAVCIS:CSI09:1,2012-08-03T14:00:00Z,29.1015,-89.9782,1015.08,11111222 
WAVCIS,ioos:station:WAVCIS:CSI09:1,2012-08-03T15:00:00Z,29.1015,-89.9782,1015.59,11111222 
WAVCIS,ioos:station:WAVCIS:CSI09:1,2012-08-03T16:00:00Z,29.1015,-89.9782,1015.88,11111222 
WAVCIS,ioos:station:WAVCIS:CSI09:1,2012-08-03T17:00:00Z,29.1015,-89.9782,1015.99,11111222 
WAVCIS,ioos:station:WAVCIS:CSI09:1,2012-08-03T18:00:00Z,29.1015,-89.9782,1015.74,11111222 
WAVCIS,ioos:station:WAVCIS:CSI09:1,2012-08-03T19:00:00Z,29.1015,-89.9782,1015.34,11111222 
WAVCIS,ioos:station:WAVCIS:CSI09:1,2012-08-03T20:00:00Z,29.1015,-89.9782,1014.72,11111222 
WAVCIS,ioos:station:WAVCIS:CSI09:1,2012-08-03T21:00:00Z,29.1015,-89.9782,1014.1,11111222 
WAVCIS,ioos:station:WAVCIS:CSI09:1,2012-08-03T22:00:00Z,29.1015,-89.9782,1014.12,11111222 
WAVCIS,ioos:station:WAVCIS:CSI09:1,2012-08-03T23:00:00Z,29.1015,-89.9782,1013.9,11111222 
WAVCIS,ioos:station:WAVCIS:CSI09:1,2012-08-04T00:00:00Z,29.1015,-89.9782,1014.07,11111222 
WAVCIS,ioos:station:WAVCIS:CSI09:1,2012-08-04T01:00:00Z,29.1015,-89.9782,1014.37,11111222 
WAVCIS,ioos:station:WAVCIS:CSI09:1,2012-08-04T02:00:00Z,29.1015,-89.9782,1014.89,11111222 
WAVCIS,ioos:station:WAVCIS:CSI09:1,2012-08-04T03:00:00Z,29.1015,-89.9782,1015.13,11111222 
WAVCIS,ioos:station:WAVCIS:CSI09:1,2012-08-04T04:00:00Z,29.1015,-89.9782,1015.21,11111222 
WAVCIS,ioos:station:WAVCIS:CSI09:1,2012-08-04T05:00:00Z,29.1015,-89.9782,1015.14,11111222 
WAVCIS,ioos:station:WAVCIS:CSI09:1,2012-08-04T06:00:00Z,29.1015,-89.9782,1014.65,11111222 
WAVCIS,ioos:station:WAVCIS:CSI09:1,2012-08-04T07:00:00Z,29.1015,-89.9782,1013.84,11111222 
WAVCIS,ioos:station:WAVCIS:CSI09:1,2012-08-04T08:00:00Z,29.1015,-89.9782,1013.34,11111222 
WAVCIS,ioos:station:WAVCIS:CSI09:1,2012-08-04T09:00:00Z,29.1015,-89.9782,1013.98,11111222 
WAVCIS,ioos:station:WAVCIS:CSI09:1,2012-08-04T10:00:00Z,29.1015,-89.9782,1014.43,11111222 
WAVCIS,ioos:station:WAVCIS:CSI09:1,2012-08-04T11:00:00Z,29.1015,-89.9782,1015.01,11111222 
WAVCIS,ioos:station:WAVCIS:CSI09:1,2012-08-04T12:00:00Z,29.1015,-89.9782,1015.83,11111222 
WAVCIS,ioos:station:WAVCIS:CSI09:1,2012-08-04T13:00:00Z,29.1015,-89.9782,1016.51,11111222 
WAVCIS,ioos:station:WAVCIS:CSI09:1,2012-08-04T14:00:00Z,29.1015,-89.9782,1017.12,11111222 
WAVCIS,ioos:station:WAVCIS:CSI09:1,2012-08-04T15:00:00Z,29.1015,-89.9782,1017.8,11111222 
WAVCIS,ioos:station:WAVCIS:CSI09:1,2012-08-04T16:00:00Z,29.1015,-89.9782,1018.32,11111222 
WAVCIS,ioos:station:WAVCIS:CSI09:1,2012-08-04T17:00:00Z,29.1015,-89.9782,1017.9,11111222 
WAVCIS,ioos:station:WAVCIS:CSI09:1,2012-08-04T18:00:00Z,29.1015,-89.9782,1017.73,11111222 
WAVCIS,ioos:station:WAVCIS:CSI09:1,2012-08-04T19:00:00Z,29.1015,-89.9782,1017.31,11111222 
WAVCIS,ioos:station:WAVCIS:CSI09:1,2012-08-04T20:00:00Z,29.1015,-89.9782,1017.06,11111222 
WAVCIS,ioos:station:WAVCIS:CSI09:1,2012-08-04T21:00:00Z,29.1015,-89.9782,1017.19,11111222 
WAVCIS,ioos:station:WAVCIS:CSI09:1,2012-08-04T22:00:00Z,29.1015,-89.9782,1016.83,11111222 
WAVCIS,ioos:station:WAVCIS:CSI09:1,2012-08-04T23:00:00Z,29.1015,-89.9782,1016.24,11111222 
WAVCIS,ioos:station:WAVCIS:CSI09:1,2012-08-05T00:00:00Z,29.1015,-89.9782,1016.1,11111222 
WAVCIS,ioos:station:WAVCIS:CSI09:1,2012-08-05T01:00:00Z,29.1015,-89.9782,1016.3,11111222 
WAVCIS,ioos:station:WAVCIS:CSI09:1,2012-08-05T02:00:00Z,29.1015,-89.9782,1017.12,11111222 
WAVCIS,ioos:station:WAVCIS:CSI09:1,2012-08-05T03:00:00Z,29.1015,-89.9782,1017.42,11111222 
WAVCIS,ioos:station:WAVCIS:CSI09:1,2012-08-05T04:00:00Z,29.1015,-89.9782,1017.84,11111222 
WAVCIS,ioos:station:WAVCIS:CSI09:1,2012-08-05T05:00:00Z,29.1015,-89.9782,1017.52,11111222 
WAVCIS,ioos:station:WAVCIS:CSI09:1,2012-08-05T06:00:00Z,29.1015,-89.9782,1016.88,11111222 
WAVCIS,ioos:station:WAVCIS:CSI09:1,2012-08-05T07:00:00Z,29.1015,-89.9782,1016.64,11111222 
WAVCIS,ioos:station:WAVCIS:CSI09:1,2012-08-05T08:00:00Z,29.1015,-89.9782,1016.54,11111222 
WAVCIS,ioos:station:WAVCIS:CSI09:1,2012-08-05T09:00:00Z,29.1015,-89.9782,1016.66,11111222 
WAVCIS,ioos:station:WAVCIS:CSI09:1,2012-08-05T10:00:00Z,29.1015,-89.9782,1017.02,11111222 
WAVCIS,ioos:station:WAVCIS:CSI09:1,2012-08-05T11:00:00Z,29.1015,-89.9782,1017.28,11111222 
WAVCIS,ioos:station:WAVCIS:CSI09:1,2012-08-05T12:00:00Z,29.1015,-89.9782,1018.19,11111222 
WAVCIS,ioos:station:WAVCIS:CSI09:1,2012-08-05T13:00:00Z,29.1015,-89.9782,1018.51,11111222 
WAVCIS,ioos:station:WAVCIS:CSI09:1,2012-08-05T14:00:00Z,29.1015,-89.9782,1018.91,11111222 
WAVCIS,ioos:station:WAVCIS:CSI09:1,2012-08-05T15:00:00Z,29.1015,-89.9782,1019.33,11111222 
WAVCIS,ioos:station:WAVCIS:CSI09:1,2012-08-05T16:00:00Z,29.1015,-89.9782,1019.84,11111222 
WAVCIS,ioos:station:WAVCIS:CSI09:1,2012-08-05T17:00:00Z,29.1015,-89.9782,1019.8,11111222 
WAVCIS,ioos:station:WAVCIS:CSI09:1,2012-08-05T18:00:00Z,29.1015,-89.9782,1019.41,11111222 
WAVCIS,ioos:station:WAVCIS:CSI09:1,2012-08-05T19:00:00Z,29.1015,-89.9782,1018.98,11111222 
WAVCIS,ioos:station:WAVCIS:CSI09:1,2012-08-05T20:00:00Z,29.1015,-89.9782,1018.42,11111222 
WAVCIS,ioos:station:WAVCIS:CSI09:1,2012-08-05T21:00:00Z,29.1015,-89.9782,1017.6,11111222 
WAVCIS,ioos:station:WAVCIS:CSI09:1,2012-08-05T22:00:00Z,29.1015,-89.9782,1017.24,11111222 
WAVCIS,ioos:station:WAVCIS:CSI09:1,2012-08-05T23:00:00Z,29.1015,-89.9782,1017.46,11111222 
WAVCIS,ioos:station:WAVCIS:CSI09:1,2012-08-06T00:00:00Z,29.1015,-89.9782,1017.27,11111222 
WAVCIS,ioos:station:WAVCIS:CSI09:1,2012-08-06T01:00:00Z,29.1015,-89.9782,1016.91,11111222 
WAVCIS,ioos:station:WAVCIS:CSI09:1,2012-08-06T02:00:00Z,29.1015,-89.9782,1017.66,11111222 
WAVCIS,ioos:station:WAVCIS:CSI09:1,2012-08-06T03:00:00Z,29.1015,-89.9782,1018.32,11111222 
WAVCIS,ioos:station:WAVCIS:CSI09:1,2012-08-06T04:00:00Z,29.1015,-89.9782,1018.58,11111222 
WAVCIS,ioos:station:WAVCIS:CSI09:1,2012-08-06T05:00:00Z,29.1015,-89.9782,1018.17,11111222 
WAVCIS,ioos:station:WAVCIS:CSI09:1,2012-08-06T06:00:00Z,29.1015,-89.9782,1017.59,11111222 
WAVCIS,ioos:station:WAVCIS:CSI09:1,2012-08-06T07:00:00Z,29.1015,-89.9782,1017.32,11111222 
WAVCIS,ioos:station:WAVCIS:CSI09:1,2012-08-06T08:00:00Z,29.1015,-89.9782,1017.0,11111222 
WAVCIS,ioos:station:WAVCIS:CSI09:1,2012-08-06T09:00:00Z,29.1015,-89.9782,1016.68,11111222 
WAVCIS,ioos:station:WAVCIS:CSI09:1,2012-08-06T10:00:00Z,29.1015,-89.9782,1016.41,11111222 
WAVCIS,ioos:station:WAVCIS:CSI09:1,2012-08-06T11:00:00Z,29.1015,-89.9782,1016.99,11111222 
WAVCIS,ioos:station:WAVCIS:CSI09:1,2012-08-06T12:00:00Z,29.1015,-89.9782,1017.57,11111222 
WAVCIS,ioos:station:WAVCIS:CSI09:1,2012-08-06T13:00:00Z,29.1015,-89.9782,1017.98,11111222 
WAVCIS,ioos:station:WAVCIS:CSI09:1,2012-08-06T14:00:00Z,29.1015,-89.9782,1018.21,11111222 
WAVCIS,ioos:station:WAVCIS:CSI09:1,2012-08-06T15:00:00Z,29.1015,-89.9782,1018.5,11111222 
WAVCIS,ioos:station:WAVCIS:CSI09:1,2012-08-06T16:00:00Z,29.1015,-89.9782,1018.54,11111222 
WAVCIS,ioos:station:WAVCIS:CSI09:1,2012-08-06T17:00:00Z,29.1015,-89.9782,1018.23,11111222 
WAVCIS,ioos:station:WAVCIS:CSI09:1,2012-08-06T18:00:00Z,29.1015,-89.9782,1018.04,11111222 
WAVCIS,ioos:station:WAVCIS:CSI09:1,2012-08-06T19:00:00Z,29.1015,-89.9782,1017.35,11111222 
WAVCIS,ioos:station:WAVCIS:CSI09:1,2012-08-06T20:00:00Z,29.1015,-89.9782,1016.33,11111222 
WAVCIS,ioos:station:WAVCIS:CSI09:1,2012-08-06T21:00:00Z,29.1015,-89.9782,1015.96,11111222 
WAVCIS,ioos:station:WAVCIS:CSI09:1,2012-08-06T22:00:00Z,29.1015,-89.9782,1015.4,11111222 
WAVCIS,ioos:station:WAVCIS:CSI09:1,2012-08-06T23:00:00Z,29.1015,-89.9782,1014.64,11111222 
WAVCIS,ioos:station:WAVCIS:CSI09:1,2012-08-07T00:00:00Z,29.1015,-89.9782,1015.24,11111222 
WAVCIS,ioos:station:WAVCIS:CSI09:1,2012-08-07T01:00:00Z,29.1015,-89.9782,1015.18,11111222 
WAVCIS,ioos:station:WAVCIS:CSI09:1,2012-08-07T02:00:00Z,29.1015,-89.9782,1015.17,11111222 
WAVCIS,ioos:station:WAVCIS:CSI09:1,2012-08-07T03:00:00Z,29.1015,-89.9782,1015.37,11111222 
WAVCIS,ioos:station:WAVCIS:CSI09:1,2012-08-07T04:00:00Z,29.1015,-89.9782,1015.64,11111222 
WAVCIS,ioos:station:WAVCIS:CSI09:1,2012-08-07T05:00:00Z,29.1015,-89.9782,1015.12,11111222 
WAVCIS,ioos:station:WAVCIS:CSI09:1,2012-08-07T06:00:00Z,29.1015,-89.9782,1014.93,11111222 
WAVCIS,ioos:station:WAVCIS:CSI09:1,2012-08-07T07:00:00Z,29.1015,-89.9782,1014.13,11111222 
WAVCIS,ioos:station:WAVCIS:CSI09:1,2012-08-07T08:00:00Z,29.1015,-89.9782,1013.83,11111222 
WAVCIS,ioos:station:WAVCIS:CSI09:1,2012-08-07T09:00:00Z,29.1015,-89.9782,1013.81,11111222 
WAVCIS,ioos:station:WAVCIS:CSI09:1,2012-08-07T10:00:00Z,29.1015,-89.9782,1013.94,11111222 
WAVCIS,ioos:station:WAVCIS:CSI09:1,2012-08-07T11:00:00Z,29.1015,-89.9782,1014.32,11111222 
WAVCIS,ioos:station:WAVCIS:CSI09:1,2012-08-07T12:00:00Z,29.1015,-89.9782,1014.72,11111222 
WAVCIS,ioos:station:WAVCIS:CSI09:1,2012-08-07T13:00:00Z,29.1015,-89.9782,1015.21,11111222 
WAVCIS,ioos:station:WAVCIS:CSI09:1,2012-08-07T14:00:00Z,29.1015,-89.9782,1015.2,11111222 
WAVCIS,ioos:station:WAVCIS:CSI09:1,2012-08-07T15:00:00Z,29.1015,-89.9782,1015.73,11111222 
WAVCIS,ioos:station:WAVCIS:CSI09:1,2012-08-07T16:00:00Z,29.1015,-89.9782,1016.03,11111222 
WAVCIS,ioos:station:WAVCIS:CSI09:1,2012-08-07T17:00:00Z,29.1015,-89.9782,1015.83,11111222 
WAVCIS,ioos:station:WAVCIS:CSI09:1,2012-08-07T18:00:00Z,29.1015,-89.9782,1015.69,11111222 
WAVCIS,ioos:station:WAVCIS:CSI09:1,2012-08-07T19:00:00Z,29.1015,-89.9782,1015.3,11111222 
WAVCIS,ioos:station:WAVCIS:CSI09:1,2012-08-07T20:00:00Z,29.1015,-89.9782,1014.54,11111222 
WAVCIS,ioos:station:WAVCIS:CSI09:1,2012-08-07T21:00:00Z,29.1015,-89.9782,1013.94,11111222 
WAVCIS,ioos:station:WAVCIS:CSI09:1,2012-08-07T22:00:00Z,29.1015,-89.9782,1013.63,11111222 
WAVCIS,ioos:station:WAVCIS:CSI09:1,2012-08-07T23:00:00Z,29.1015,-89.9782,1013.67,11111222 
WAVCIS,ioos:station:WAVCIS:CSI09:1,2012-08-08T00:00:00Z,29.1015,-89.9782,1013.93,11111222 
WAVCIS,ioos:station:WAVCIS:CSI09:1,2012-08-08T01:00:00Z,29.1015,-89.9782,1014.03,11111222 
WAVCIS,ioos:station:WAVCIS:CSI09:1,2012-08-08T02:00:00Z,29.1015,-89.9782,1014.61,11111222 
WAVCIS,ioos:station:WAVCIS:CSI09:1,2012-08-08T03:00:00Z,29.1015,-89.9782,1014.86,11111222 
WAVCIS,ioos:station:WAVCIS:CSI09:1,2012-08-08T04:00:00Z,29.1015,-89.9782,1015.09,11111222 
WAVCIS,ioos:station:WAVCIS:CSI09:1,2012-08-08T05:00:00Z,29.1015,-89.9782,1014.98,11111222 
WAVCIS,ioos:station:WAVCIS:CSI09:1,2012-08-08T06:00:00Z,29.1015,-89.9782,1014.86,11111222 
WAVCIS,ioos:station:WAVCIS:CSI09:1,2012-08-08T07:00:00Z,29.1015,-89.9782,1014.39,11111222 
WAVCIS,ioos:station:WAVCIS:CSI09:1,2012-08-08T08:00:00Z,29.1015,-89.9782,1014.1,11111222 
WAVCIS,ioos:station:WAVCIS:CSI09:1,2012-08-08T09:00:00Z,29.1015,-89.9782,1014.37,11111222 
WAVCIS,ioos:station:WAVCIS:CSI09:1,2012-08-08T10:00:00Z,29.1015,-89.9782,1014.2,11111222 
WAVCIS,ioos:station:WAVCIS:CSI09:1,2012-08-08T11:00:00Z,29.1015,-89.9782,1014.86,11111222 
WAVCIS,ioos:station:WAVCIS:CSI09:1,2012-08-08T12:00:00Z,29.1015,-89.9782,1015.04,11111222 
WAVCIS,ioos:station:WAVCIS:CSI09:1,2012-08-08T13:00:00Z,29.1015,-89.9782,1016.06,11111222 
WAVCIS,ioos:station:WAVCIS:CSI09:1,2012-08-08T14:00:00Z,29.1015,-89.9782,1016.71,11111222 
WAVCIS,ioos:station:WAVCIS:CSI09:1,2012-08-08T15:00:00Z,29.1015,-89.9782,1017.15,11111222 
WAVCIS,ioos:station:WAVCIS:CSI09:1,2012-08-08T16:00:00Z,29.1015,-89.9782,1017.11,11111222 
WAVCIS,ioos:station:WAVCIS:CSI09:1,2012-08-08T17:00:00Z,29.1015,-89.9782,1017.26,11111222 
WAVCIS,ioos:station:WAVCIS:CSI09:1,2012-08-08T18:00:00Z,29.1015,-89.9782,1017.15,11111222 
WAVCIS,ioos:station:WAVCIS:CSI09:1,2012-08-08T19:00:00Z,29.1015,-89.9782,1015.89,11111222 
WAVCIS,ioos:station:WAVCIS:CSI09:1,2012-08-08T20:00:00Z,29.1015,-89.9782,1016.43,11111222 
WAVCIS,ioos:station:WAVCIS:CSI09:1,2012-08-08T21:00:00Z,29.1015,-89.9782,1015.73,11111222 
WAVCIS,ioos:station:WAVCIS:CSI09:1,2012-08-08T22:00:00Z,29.1015,-89.9782,1015.26,11111222 
WAVCIS,ioos:station:WAVCIS:CSI09:1,2012-08-08T23:00:00Z,29.1015,-89.9782,1014.38,11111222 
WAVCIS,ioos:station:WAVCIS:CSI09:1,2012-08-09T00:00:00Z,29.1015,-89.9782,1014.45,11111222 
WAVCIS,ioos:station:WAVCIS:CSI09:1,2012-08-09T01:00:00Z,29.1015,-89.9782,1014.92,11111222 
WAVCIS,ioos:station:WAVCIS:CSI09:1,2012-08-09T02:00:00Z,29.1015,-89.9782,1015.44,11111222 
WAVCIS,ioos:station:WAVCIS:CSI09:1,2012-08-09T03:00:00Z,29.1015,-89.9782,1015.84,11111222 
WAVCIS,ioos:station:WAVCIS:CSI09:1,2012-08-09T04:00:00Z,29.1015,-89.9782,1015.77,11111222 
WAVCIS,ioos:station:WAVCIS:CSI09:1,2012-08-09T05:00:00Z,29.1015,-89.9782,1015.24,11111222 
WAVCIS,ioos:station:WAVCIS:CSI09:1,2012-08-09T06:00:00Z,29.1015,-89.9782,1015.06,11111222 
WAVCIS,ioos:station:WAVCIS:CSI09:1,2012-08-09T07:00:00Z,29.1015,-89.9782,1014.83,11111222 
WAVCIS,ioos:station:WAVCIS:CSI09:1,2012-08-09T08:00:00Z,29.1015,-89.9782,1014.63,11111222 
WAVCIS,ioos:station:WAVCIS:CSI09:1,2012-08-09T09:00:00Z,29.1015,-89.9782,1014.68,11111222 
WAVCIS,ioos:station:WAVCIS:CSI09:1,2012-08-09T10:00:00Z,29.1015,-89.9782,1014.66,11111222 
WAVCIS,ioos:station:WAVCIS:CSI09:1,2012-08-09T11:00:00Z,29.1015,-89.9782,1014.69,11111222 
WAVCIS,ioos:station:WAVCIS:CSI09:1,2012-08-09T12:00:00Z,29.1015,-89.9782,1015.24,11111222 
WAVCIS,ioos:station:WAVCIS:CSI09:1,2012-08-09T13:00:00Z,29.1015,-89.9782,1015.52,11111222 
WAVCIS,ioos:station:WAVCIS:CSI09:1,2012-08-09T14:00:00Z,29.1015,-89.9782,1015.99,11111222 
WAVCIS,ioos:station:WAVCIS:CSI09:1,2012-08-09T15:00:00Z,29.1015,-89.9782,1015.87,11111222 
WAVCIS,ioos:station:WAVCIS:CSI09:1,2012-08-09T16:00:00Z,29.1015,-89.9782,1015.55,11111222 
WAVCIS,ioos:station:WAVCIS:CSI09:1,2012-08-09T17:00:00Z,29.1015,-89.9782,1015.2,11111222 
WAVCIS,ioos:station:WAVCIS:CSI09:1,2012-08-09T18:00:00Z,29.1015,-89.9782,1014.65,11111222 
WAVCIS,ioos:station:WAVCIS:CSI09:1,2012-08-09T19:00:00Z,29.1015,-89.9782,1014.13,11111222 
WAVCIS,ioos:station:WAVCIS:CSI09:1,2012-08-09T20:00:00Z,29.1015,-89.9782,1014.52,11111222 
WAVCIS,ioos:station:WAVCIS:CSI09:1,2012-08-09T21:00:00Z,29.1015,-89.9782,1014.88,11111222 
WAVCIS,ioos:station:WAVCIS:CSI09:1,2012-08-09T22:00:00Z,29.1015,-89.9782,1013.97,11111222 
WAVCIS,ioos:station:WAVCIS:CSI09:1,2012-08-09T23:00:00Z,29.1015,-89.9782,1014.1,11111222 
WAVCIS,ioos:station:WAVCIS:CSI09:1,2012-08-10T00:00:00Z,29.1015,-89.9782,1014.42,11111222 
WAVCIS,ioos:station:WAVCIS:CSI09:1,2012-08-10T01:00:00Z,29.1015,-89.9782,1014.58,11111222 
WAVCIS,ioos:station:WAVCIS:CSI09:1,2012-08-10T02:00:00Z,29.1015,-89.9782,1014.53,11111222 
WAVCIS,ioos:station:WAVCIS:CSI09:1,2012-08-10T03:00:00Z,29.1015,-89.9782,1013.58,11111222 
WAVCIS,ioos:station:WAVCIS:CSI09:1,2012-08-10T04:00:00Z,29.1015,-89.9782,1012.96,11111222 
WAVCIS,ioos:station:WAVCIS:CSI09:1,2012-08-10T05:00:00Z,29.1015,-89.9782,1013.66,11111222 
WAVCIS,ioos:station:WAVCIS:CSI09:1,2012-08-10T06:00:00Z,29.1015,-89.9782,1013.06,11111222 
WAVCIS,ioos:station:WAVCIS:CSI09:1,2012-08-10T07:00:00Z,29.1015,-89.9782,1012.84,11111222 
WAVCIS,ioos:station:WAVCIS:CSI09:1,2012-08-10T08:00:00Z,29.1015,-89.9782,1012.56,11111222 
WAVCIS,ioos:station:WAVCIS:CSI09:1,2012-08-10T09:00:00Z,29.1015,-89.9782,1012.65,11111222 
WAVCIS,ioos:station:WAVCIS:CSI09:1,2012-08-10T10:00:00Z,29.1015,-89.9782,1013.02,11111222 
WAVCIS,ioos:station:WAVCIS:CSI09:1,2012-08-10T11:00:00Z,29.1015,-89.9782,1013.27,11111222 
WAVCIS,ioos:station:WAVCIS:CSI09:1,2012-08-10T12:00:00Z,29.1015,-89.9782,1013.6,11111222 
WAVCIS,ioos:station:WAVCIS:CSI09:1,2012-08-10T13:00:00Z,29.1015,-89.9782,1013.64,11111222 
WAVCIS,ioos:station:WAVCIS:CSI09:1,2012-08-10T14:00:00Z,29.1015,-89.9782,1013.98,11111222 
WAVCIS,ioos:station:WAVCIS:CSI09:1,2012-08-10T15:00:00Z,29.1015,-89.9782,1014.22,11111222 
WAVCIS,ioos:station:WAVCIS:CSI09:1,2012-08-10T16:00:00Z,29.1015,-89.9782,1014.26,11111222 
WAVCIS,ioos:station:WAVCIS:CSI09:1,2012-08-10T17:00:00Z,29.1015,-89.9782,1014.56,11111222 
WAVCIS,ioos:station:WAVCIS:CSI09:1,2012-08-10T18:00:00Z,29.1015,-89.9782,1014.34,11111222 
WAVCIS,ioos:station:WAVCIS:CSI09:1,2012-08-10T19:00:00Z,29.1015,-89.9782,1013.42,11111222 
WAVCIS,ioos:station:WAVCIS:CSI09:1,2012-08-10T20:00:00Z,29.1015,-89.9782,1013.46,11111222 
WAVCIS,ioos:station:WAVCIS:CSI09:1,2012-08-10T21:00:00Z,29.1015,-89.9782,1013.27,11111222 
WAVCIS,ioos:station:WAVCIS:CSI09:1,2012-08-10T22:00:00Z,29.1015,-89.9782,1013.15,11111222 
WAVCIS,ioos:station:WAVCIS:CSI09:1,2012-08-10T23:00:00Z,29.1015,-89.9782,1011.99,11111222 
WAVCIS,ioos:station:WAVCIS:CSI09:1,2012-08-11T00:00:00Z,29.1015,-89.9782,1010.73,11111222 
WAVCIS,ioos:station:WAVCIS:CSI09:1,2012-08-11T01:00:00Z,29.1015,-89.9782,1011.84,11111222 
WAVCIS,ioos:station:WAVCIS:CSI09:1,2012-08-11T02:00:00Z,29.1015,-89.9782,1012.16,11111222 
WAVCIS,ioos:station:WAVCIS:CSI09:1,2012-08-11T03:00:00Z,29.1015,-89.9782,1013.11,11111222 
WAVCIS,ioos:station:WAVCIS:CSI09:1,2012-08-11T04:00:00Z,29.1015,-89.9782,1013.0,11111222 
WAVCIS,ioos:station:WAVCIS:CSI09:1,2012-08-11T05:00:00Z,29.1015,-89.9782,1012.33,11111222 
WAVCIS,ioos:station:WAVCIS:CSI09:1,2012-08-11T06:00:00Z,29.1015,-89.9782,1011.9,11111222 
WAVCIS,ioos:station:WAVCIS:CSI09:1,2012-08-11T07:00:00Z,29.1015,-89.9782,1012.31,11111222 
WAVCIS,ioos:station:WAVCIS:CSI09:1,2012-08-11T08:00:00Z,29.1015,-89.9782,1012.5,11111222 
WAVCIS,ioos:station:WAVCIS:CSI09:1,2012-08-11T09:00:00Z,29.1015,-89.9782,1012.42,11111222 
WAVCIS,ioos:station:WAVCIS:CSI09:1,2012-08-11T10:00:00Z,29.1015,-89.9782,1012.86,11111222 
WAVCIS,ioos:station:WAVCIS:CSI09:1,2012-08-11T11:00:00Z,29.1015,-89.9782,1012.5,11111222 
WAVCIS,ioos:station:WAVCIS:CSI09:1,2012-08-11T12:00:00Z,29.1015,-89.9782,1012.82,11111222 
WAVCIS,ioos:station:WAVCIS:CSI09:1,2012-08-11T13:00:00Z,29.1015,-89.9782,1013.16,11111222 
WAVCIS,ioos:station:WAVCIS:CSI09:1,2012-08-11T14:00:00Z,29.1015,-89.9782,1014.07,11111222 
WAVCIS,ioos:station:WAVCIS:CSI09:1,2012-08-11T15:00:00Z,29.1015,-89.9782,1014.73,11111222 
WAVCIS,ioos:station:WAVCIS:CSI09:1,2012-08-11T16:00:00Z,29.1015,-89.9782,1014.91,11111222 
WAVCIS,ioos:station:WAVCIS:CSI09:1,2012-08-11T17:00:00Z,29.1015,-89.9782,1015.0,11111222 
WAVCIS,ioos:station:WAVCIS:CSI09:1,2012-08-11T18:00:00Z,29.1015,-89.9782,1015.2,11111222 
WAVCIS,ioos:station:WAVCIS:CSI09:1,2012-08-11T19:00:00Z,29.1015,-89.9782,1014.93,11111222 
WAVCIS,ioos:station:WAVCIS:CSI09:1,2012-08-11T20:00:00Z,29.1015,-89.9782,1014.28,11111222 
WAVCIS,ioos:station:WAVCIS:CSI09:1,2012-08-11T21:00:00Z,29.1015,-89.9782,1013.62,11111222 
WAVCIS,ioos:station:WAVCIS:CSI09:1,2012-08-11T22:00:00Z,29.1015,-89.9782,1013.47,11111222 